Time,TemperatureF,DewpointF,PressureIn,WindDirection,WindDirectionDegrees,WindSpeedMPH,WindSpeedGustMPH,Humidity,HourlyPrecipIn,Conditions,Clouds,dailyrainin,SoftwareType,DateUTC
2013-05-01 00:01:00,72.0,68.5,30.00,NE,45,7.0,8.0,89,0.00,,,0.00,meteohub,2013-05-01 04:01:00,
2013-05-01 00:02:00,72.0,68.5,30.00,NE,45,6.0,8.0,89,0.00,,,0.00,meteohub,2013-05-01 04:02:00,
2013-05-01 00:03:00,71.1,67.6,30.00,NE,45,2.0,8.0,89,0.00,,,0.00,meteohub,2013-05-01 04:03:00,
2013-05-01 00:08:00,71.1,68.0,30.00,NE,45,4.0,8.0,90,0.00,,,0.00,meteohub,2013-05-01 04:08:00,
2013-05-01 00:13:00,71.1,68.0,29.99,NE,45,6.0,8.0,90,0.00,,,0.00,meteohub,2013-05-01 04:13:00,
2013-05-01 00:18:00,71.1,68.9,30.00,SE,135,6.0,7.0,93,0.00,,,0.00,meteohub,2013-05-01 04:18:00,
2013-05-01 00:24:00,71.1,68.4,30.00,NE,45,5.0,7.0,91,0.00,,,0.00,meteohub,2013-05-01 04:24:00,
2013-05-01 00:29:00,71.1,68.4,29.99,NE,45,4.0,7.0,91,0.00,,,0.00,meteohub,2013-05-01 04:29:00,
2013-05-01 00:34:00,71.1,68.4,29.99,NE,45,4.0,7.0,91,0.00,,,0.00,meteohub,2013-05-01 04:34:00,
2013-05-01 00:39:00,71.1,69.3,29.99,NE,45,6.0,7.0,94,0.00,,,0.00,meteohub,2013-05-01 04:39:00,
2013-05-01 00:44:00,71.1,68.4,29.99,NE,45,1.0,7.0,91,0.00,,,0.00,meteohub,2013-05-01 04:44:00,
2013-05-01 00:49:00,71.1,68.5,29.99,NE,45,5.0,7.0,92,0.00,,,0.00,meteohub,2013-05-01 04:49:00,
2013-05-01 00:54:00,71.1,68.5,29.99,NE,45,3.0,7.0,92,0.00,,,0.00,meteohub,2013-05-01 04:54:00,
2013-05-01 01:00:00,71.1,68.5,29.99,NE,45,3.0,7.0,92,0.00,,,0.00,meteohub,2013-05-01 05:00:00,
2013-05-01 01:05:00,71.1,68.5,29.98,NE,45,2.0,7.0,92,0.00,,,0.00,meteohub,2013-05-01 05:05:00,
2013-05-01 01:10:00,71.1,68.5,29.99,NE,45,4.0,7.0,92,0.00,,,0.00,meteohub,2013-05-01 05:10:00,
2013-05-01 01:15:00,71.1,68.5,29.98,NE,45,2.0,7.0,92,0.00,,,0.00,meteohub,2013-05-01 05:15:00,
2013-05-01 01:20:00,71.1,68.5,29.98,NE,45,4.0,7.0,92,0.00,,,0.00,meteohub,2013-05-01 05:20:00,
2013-05-01 01:25:00,71.1,68.5,29.98,NE,45,5.0,7.0,92,0.00,,,0.00,meteohub,2013-05-01 05:25:00,
2013-05-01 01:31:00,71.1,68.5,29.98,NE,45,5.0,6.0,92,0.00,,,0.00,meteohub,2013-05-01 05:31:00,
2013-05-01 01:36:00,71.1,69.8,29.96,NE,45,4.0,6.0,96,0.00,,,0.00,meteohub,2013-05-01 05:36:00,
2013-05-01 01:41:00,71.1,68.5,29.96,NE,45,3.0,6.0,92,0.00,,,0.00,meteohub,2013-05-01 05:41:00,
2013-05-01 01:46:00,71.1,68.5,29.96,NE,45,4.0,6.0,92,0.00,,,0.00,meteohub,2013-05-01 05:46:00,
2013-05-01 01:51:00,71.1,68.9,29.96,NE,45,2.0,6.0,93,0.00,,,0.00,meteohub,2013-05-01 05:51:00,
2013-05-01 01:56:00,71.1,69.8,29.96,NE,45,4.0,6.0,96,0.00,,,0.00,meteohub,2013-05-01 05:56:00,
2013-05-01 02:02:00,71.1,68.9,29.96,NE,45,4.0,6.0,93,0.00,,,0.00,meteohub,2013-05-01 06:02:00,
2013-05-01 02:07:00,71.1,68.9,29.96,NE,45,1.0,6.0,93,0.00,,,0.00,meteohub,2013-05-01 06:07:00,
2013-05-01 02:12:00,71.1,68.9,29.96,NE,45,2.0,6.0,93,0.00,,,0.00,meteohub,2013-05-01 06:12:00,
2013-05-01 02:17:00,71.1,68.9,29.96,NE,45,0.0,5.0,93,0.00,,,0.00,meteohub,2013-05-01 06:17:00,
2013-05-01 02:22:00,71.1,69.3,29.96,NE,45,2.0,5.0,94,0.00,,,0.00,meteohub,2013-05-01 06:22:00,
2013-05-01 02:27:00,71.1,69.3,29.96,NE,45,3.0,5.0,94,0.00,,,0.00,meteohub,2013-05-01 06:27:00,
2013-05-01 02:32:00,71.1,70.2,29.96,NE,45,1.0,6.0,97,0.00,,,0.00,meteohub,2013-05-01 06:32:00,
2013-05-01 02:37:00,71.1,69.3,29.96,NE,45,5.0,6.0,94,0.00,,,0.00,meteohub,2013-05-01 06:37:00,
2013-05-01 02:42:00,71.1,69.3,29.95,SE,135,6.0,7.0,94,0.00,,,0.00,meteohub,2013-05-01 06:42:00,
2013-05-01 02:47:00,71.1,69.3,29.95,NE,45,6.0,7.0,94,0.00,,,0.00,meteohub,2013-05-01 06:47:00,
2013-05-01 02:52:00,71.1,69.3,29.95,NE,45,6.0,7.0,94,0.00,,,0.00,meteohub,2013-05-01 06:52:00,
2013-05-01 02:57:00,71.1,69.3,29.94,NE,45,6.0,8.0,94,0.00,,,0.00,meteohub,2013-05-01 06:57:00,
2013-05-01 03:02:00,71.1,69.3,29.94,NE,45,3.0,8.0,94,0.00,,,0.00,meteohub,2013-05-01 07:02:00,
2013-05-01 03:07:00,71.1,70.5,29.94,NE,45,5.0,9.0,98,0.00,,,0.00,meteohub,2013-05-01 07:07:00,
2013-05-01 03:12:00,71.1,69.3,29.94,NE,45,2.0,9.0,94,0.00,,,0.00,meteohub,2013-05-01 07:12:00,
2013-05-01 03:17:00,71.1,69.3,29.94,NE,45,4.0,9.0,94,0.00,,,0.00,meteohub,2013-05-01 07:17:00,
2013-05-01 03:22:00,71.1,69.3,29.94,NE,45,0.0,7.0,94,0.00,,,0.00,meteohub,2013-05-01 07:22:00,
2013-05-01 03:27:00,71.1,69.3,29.94,NE,45,3.0,6.0,94,0.00,,,0.00,meteohub,2013-05-01 07:27:00,
2013-05-01 03:32:00,71.1,69.3,29.94,NE,45,3.0,6.0,94,0.00,,,0.00,meteohub,2013-05-01 07:32:00,
2013-05-01 03:37:00,71.1,69.3,29.94,NE,45,1.0,5.0,94,0.00,,,0.00,meteohub,2013-05-01 07:37:00,
2013-05-01 03:42:00,70.0,69.4,29.94,NE,45,3.0,5.0,98,0.00,,,0.00,meteohub,2013-05-01 07:42:00,
2013-05-01 03:47:00,71.1,69.3,29.94,NE,45,3.0,5.0,94,0.00,,,0.00,meteohub,2013-05-01 07:47:00,
2013-05-01 03:52:00,71.1,69.6,29.94,NE,45,1.0,6.0,95,0.00,,,0.00,meteohub,2013-05-01 07:52:00,
2013-05-01 03:57:00,71.1,69.6,29.93,NE,45,3.0,7.0,95,0.00,,,0.00,meteohub,2013-05-01 07:57:00,
2013-05-01 04:02:00,71.1,69.6,29.93,NE,45,3.0,7.0,95,0.00,,,0.00,meteohub,2013-05-01 08:02:00,
2013-05-01 04:07:00,71.1,69.6,29.93,NE,45,2.0,6.0,95,0.00,,,0.00,meteohub,2013-05-01 08:07:00,
2013-05-01 04:12:00,71.1,69.6,29.93,NE,45,2.0,6.0,95,0.00,,,0.00,meteohub,2013-05-01 08:12:00,
2013-05-01 04:17:00,71.1,70.7,29.93,NE,45,3.0,6.0,99,0.00,,,0.00,meteohub,2013-05-01 08:17:00,
2013-05-01 04:22:00,71.1,69.6,29.93,NE,45,4.0,5.0,95,0.00,,,0.00,meteohub,2013-05-01 08:22:00,
2013-05-01 04:27:00,71.1,69.6,29.93,NE,45,5.0,7.0,95,0.00,,,0.00,meteohub,2013-05-01 08:27:00,
2013-05-01 04:32:00,70.0,68.7,29.93,NE,45,3.0,9.0,96,0.00,,,0.00,meteohub,2013-05-01 08:32:00,
2013-05-01 04:37:00,70.0,68.5,29.93,NE,45,3.0,9.0,95,0.00,,,0.00,meteohub,2013-05-01 08:37:00,
2013-05-01 04:42:00,70.0,68.7,29.93,NE,45,4.0,9.0,96,0.00,,,0.00,meteohub,2013-05-01 08:42:00,
2013-05-01 04:47:00,70.0,68.7,29.93,NE,45,6.0,9.0,96,0.00,,,0.00,meteohub,2013-05-01 08:47:00,
2013-05-01 04:52:00,70.0,70.0,29.93,NE,45,3.0,9.0,100,0.00,,,0.00,meteohub,2013-05-01 08:52:00,
2013-05-01 04:57:00,70.0,68.7,29.93,NE,45,3.0,9.0,96,0.00,,,0.00,meteohub,2013-05-01 08:57:00,
2013-05-01 05:02:00,70.0,68.7,29.93,NE,45,3.0,9.0,96,0.00,,,0.00,meteohub,2013-05-01 09:02:00,
2013-05-01 05:07:00,70.0,68.7,29.93,SE,135,3.0,8.0,96,0.00,,,0.00,meteohub,2013-05-01 09:07:00,
2013-05-01 05:12:00,70.0,68.7,29.93,NE,45,6.0,8.0,96,0.00,,,0.00,meteohub,2013-05-01 09:12:00,
2013-05-01 05:17:00,70.0,68.7,29.94,NE,45,6.0,8.0,96,0.00,,,0.00,meteohub,2013-05-01 09:17:00,
2013-05-01 05:22:00,70.0,69.1,29.94,NE,45,2.0,8.0,97,0.00,,,0.00,meteohub,2013-05-01 09:22:00,
2013-05-01 05:27:00,70.0,70.0,29.94,NE,45,2.0,8.0,100,0.00,,,0.00,meteohub,2013-05-01 09:27:00,
2013-05-01 05:32:00,70.0,68.7,29.94,NE,45,7.0,8.0,96,0.00,,,0.00,meteohub,2013-05-01 09:32:00,
2013-05-01 05:37:00,70.0,69.1,29.94,NE,45,9.0,10.0,97,0.00,,,0.00,meteohub,2013-05-01 09:37:00,
2013-05-01 05:42:00,70.0,69.1,29.94,NE,45,3.0,10.0,97,0.00,,,0.00,meteohub,2013-05-01 09:42:00,
2013-05-01 05:47:00,70.0,69.1,29.94,SE,135,4.0,12.0,97,0.00,,,0.00,meteohub,2013-05-01 09:47:00,
2013-05-01 05:52:00,70.0,69.1,29.94,NE,45,6.0,12.0,97,0.00,,,0.00,meteohub,2013-05-01 09:52:00,
2013-05-01 05:57:00,71.1,70.2,29.94,NE,45,6.0,13.0,97,0.00,,,0.00,meteohub,2013-05-01 09:57:00,
2013-05-01 06:02:00,70.0,70.0,29.96,SE,135,5.0,13.0,100,0.00,,,0.00,meteohub,2013-05-01 10:02:00,
2013-05-01 06:07:00,71.1,70.2,29.96,NE,45,5.0,11.0,97,0.00,,,0.00,meteohub,2013-05-01 10:07:00,
2013-05-01 06:12:00,71.1,70.2,29.96,NE,45,5.0,11.0,97,0.00,,,0.00,meteohub,2013-05-01 10:12:00,
2013-05-01 06:17:00,71.1,70.2,29.96,NE,45,5.0,11.0,97,0.00,,,0.00,meteohub,2013-05-01 10:17:00,
2013-05-01 06:22:00,70.0,70.0,29.96,NE,45,10.0,11.0,100,0.00,,,0.00,meteohub,2013-05-01 10:22:00,
2013-05-01 06:27:00,71.1,70.2,29.96,NE,45,8.0,10.0,97,0.00,,,0.00,meteohub,2013-05-01 10:27:00,
2013-05-01 06:32:00,71.1,70.2,29.96,NE,45,6.0,10.0,97,0.00,,,0.00,meteohub,2013-05-01 10:32:00,
2013-05-01 06:38:00,71.1,70.2,29.96,NE,45,10.0,10.0,97,0.00,,,0.00,meteohub,2013-05-01 10:38:00,
2013-05-01 06:43:00,71.1,71.1,29.96,NE,45,8.0,10.0,100,0.00,,,0.00,meteohub,2013-05-01 10:43:00,
2013-05-01 06:48:00,71.1,70.2,29.96,NE,45,6.0,12.0,97,0.00,,,0.00,meteohub,2013-05-01 10:48:00,
2013-05-01 06:53:00,71.1,70.2,29.96,NE,45,7.0,11.0,97,0.00,,,0.00,meteohub,2013-05-01 10:53:00,
2013-05-01 06:58:00,71.1,70.5,29.96,NE,45,8.0,11.0,98,0.00,,,0.00,meteohub,2013-05-01 10:58:00,
2013-05-01 07:04:00,71.1,70.2,29.96,NE,45,7.0,12.0,97,0.00,,,0.00,meteohub,2013-05-01 11:04:00,
2013-05-01 07:09:00,71.1,70.2,29.96,NE,45,4.0,12.0,97,0.00,,,0.00,meteohub,2013-05-01 11:09:00,
2013-05-01 07:14:00,71.1,70.2,29.96,NE,45,2.0,12.0,97,0.00,,,0.00,meteohub,2013-05-01 11:14:00,
2013-05-01 07:19:00,71.1,70.5,29.96,NE,45,3.0,12.0,98,0.00,,,0.00,meteohub,2013-05-01 11:19:00,
2013-05-01 07:24:00,71.1,70.2,29.96,SE,135,7.0,9.0,97,0.00,,,0.00,meteohub,2013-05-01 11:24:00,
2013-05-01 07:29:00,71.1,70.2,29.96,NE,45,5.0,9.0,97,0.00,,,0.00,meteohub,2013-05-01 11:29:00,
2013-05-01 07:35:00,71.1,70.2,29.96,NE,45,6.0,9.0,97,0.00,,,0.00,meteohub,2013-05-01 11:35:00,
2013-05-01 07:40:00,71.1,70.2,29.96,NE,45,6.0,9.0,97,0.00,,,0.00,meteohub,2013-05-01 11:40:00,
2013-05-01 07:45:00,72.0,71.1,29.96,NE,45,6.0,9.0,97,0.00,,,0.00,meteohub,2013-05-01 11:45:00,
2013-05-01 07:50:00,72.0,71.1,29.96,NE,45,6.0,9.0,97,0.00,,,0.00,meteohub,2013-05-01 11:50:00,
2013-05-01 07:55:00,72.0,70.7,29.96,SE,135,6.0,9.0,96,0.00,,,0.00,meteohub,2013-05-01 11:55:00,
2013-05-01 08:01:00,72.0,72.0,29.96,NE,45,9.0,9.0,100,0.00,,,0.00,meteohub,2013-05-01 12:01:00,
2013-05-01 08:06:00,72.0,70.5,29.96,SE,135,8.0,13.0,95,0.00,,,0.00,meteohub,2013-05-01 12:06:00,
2013-05-01 08:11:00,72.0,70.5,29.96,NE,45,5.0,13.0,95,0.00,,,0.00,meteohub,2013-05-01 12:11:00,
2013-05-01 08:16:00,73.0,71.2,29.96,NE,45,9.0,12.0,94,0.00,,,0.00,meteohub,2013-05-01 12:16:00,
2013-05-01 08:21:00,72.0,72.0,29.96,NE,45,8.0,12.0,100,0.00,,,0.00,meteohub,2013-05-01 12:21:00,
2013-05-01 08:27:00,73.0,70.9,29.96,NE,45,6.0,12.0,93,0.00,,,0.00,meteohub,2013-05-01 12:27:00,
2013-05-01 08:32:00,73.0,70.5,29.96,NE,45,6.0,12.0,92,0.00,,,0.00,meteohub,2013-05-01 12:32:00,
2013-05-01 08:37:00,73.0,70.5,29.96,NE,45,5.0,10.0,92,0.00,,,0.00,meteohub,2013-05-01 12:37:00,
2013-05-01 08:42:00,73.9,71.1,29.96,NE,45,5.0,10.0,91,0.00,,,0.00,meteohub,2013-05-01 12:42:00,
2013-05-01 08:47:00,73.9,70.5,29.98,NE,45,6.0,11.0,89,0.00,,,0.00,meteohub,2013-05-01 12:47:00,
2013-05-01 08:52:00,73.9,70.5,29.99,SE,135,7.0,11.0,89,0.00,,,0.00,meteohub,2013-05-01 12:52:00,
2013-05-01 08:57:00,73.9,72.5,29.99,NE,45,7.0,10.0,95,0.00,,,0.00,meteohub,2013-05-01 12:57:00,
2013-05-01 09:02:00,75.0,70.5,29.99,SE,135,6.0,10.0,86,0.00,,,0.00,meteohub,2013-05-01 13:02:00,
2013-05-01 09:07:00,75.9,71.8,29.99,SE,135,10.0,12.0,87,0.00,,,0.00,meteohub,2013-05-01 13:07:00,
2013-05-01 09:12:00,75.9,71.4,30.00,SE,135,7.0,12.0,86,0.00,,,0.00,meteohub,2013-05-01 13:12:00,
2013-05-01 09:17:00,75.0,72.5,30.00,NE,45,9.0,12.0,92,0.00,,,0.00,meteohub,2013-05-01 13:17:00,
2013-05-01 09:22:00,75.9,70.7,30.00,SE,135,10.0,13.0,84,0.00,,,0.00,meteohub,2013-05-01 13:22:00,
2013-05-01 09:27:00,75.9,71.1,30.01,SE,135,8.0,13.0,85,0.00,,,0.00,meteohub,2013-05-01 13:27:00,
2013-05-01 09:33:00,75.9,71.1,30.01,SE,135,7.0,13.0,85,0.00,,,0.00,meteohub,2013-05-01 13:33:00,
2013-05-01 09:38:00,75.9,73.4,30.01,SE,135,7.0,13.0,92,0.00,,,0.00,meteohub,2013-05-01 13:38:00,
2013-05-01 09:43:00,77.0,71.4,30.01,NE,45,7.0,13.0,83,0.00,,,0.00,meteohub,2013-05-01 13:43:00,
2013-05-01 09:48:00,77.0,71.4,30.01,NE,45,7.0,13.0,83,0.00,,,0.00,meteohub,2013-05-01 13:48:00,
2013-05-01 09:53:00,77.0,71.4,30.01,SE,135,9.0,13.0,83,0.00,,,0.00,meteohub,2013-05-01 13:53:00,
2013-05-01 09:58:00,77.0,71.1,30.01,SE,135,8.0,13.0,82,0.00,,,0.00,meteohub,2013-05-01 13:58:00,
2013-05-01 10:03:00,78.1,71.8,30.01,NE,45,8.0,13.0,81,0.00,,,0.00,meteohub,2013-05-01 14:03:00,
2013-05-01 10:09:00,78.1,72.1,30.00,SE,135,10.0,13.0,82,0.00,,,0.00,meteohub,2013-05-01 14:09:00,
2013-05-01 10:14:00,78.1,72.1,30.01,SE,135,7.0,13.0,82,0.00,,,0.00,meteohub,2013-05-01 14:14:00,
2013-05-01 10:19:00,78.1,71.8,30.01,SE,135,9.0,13.0,81,0.00,,,0.00,meteohub,2013-05-01 14:19:00,
2013-05-01 10:24:00,78.1,71.8,30.01,SE,135,12.0,15.0,81,0.00,,,0.00,meteohub,2013-05-01 14:24:00,
2013-05-01 10:29:00,78.1,71.8,30.01,SE,135,12.0,15.0,81,0.00,,,0.00,meteohub,2013-05-01 14:29:00,
2013-05-01 10:34:00,78.1,73.9,30.01,SE,135,10.0,17.0,87,0.00,,,0.00,meteohub,2013-05-01 14:34:00,
2013-05-01 10:40:00,78.1,71.8,30.01,SE,135,11.0,17.0,81,0.00,,,0.00,meteohub,2013-05-01 14:40:00,
2013-05-01 10:45:00,78.1,71.4,30.01,SE,135,9.0,17.0,80,0.00,,,0.00,meteohub,2013-05-01 14:45:00,
2013-05-01 10:50:00,78.1,71.8,30.00,SE,135,11.0,17.0,81,0.00,,,0.00,meteohub,2013-05-01 14:50:00,
2013-05-01 10:55:00,78.1,73.9,30.00,SE,135,12.0,18.0,87,0.00,,,0.00,meteohub,2013-05-01 14:55:00,
2013-05-01 11:00:00,79.0,72.3,30.00,SE,135,9.0,18.0,80,0.00,,,0.00,meteohub,2013-05-01 15:00:00,
2013-05-01 11:05:00,79.0,72.3,30.00,SE,135,13.0,17.0,80,0.00,,,0.00,meteohub,2013-05-01 15:05:00,
2013-05-01 11:11:00,79.0,72.7,30.00,SE,135,9.0,17.0,81,0.00,,,0.00,meteohub,2013-05-01 15:11:00,
2013-05-01 11:16:00,79.0,72.7,30.00,SE,135,12.0,17.0,81,0.00,,,0.00,meteohub,2013-05-01 15:16:00,
2013-05-01 11:21:00,79.0,72.7,30.00,SE,135,15.0,17.0,81,0.00,,,0.00,meteohub,2013-05-01 15:21:00,
2013-05-01 11:26:00,79.0,72.7,30.00,SE,135,9.0,15.0,81,0.00,,,0.00,meteohub,2013-05-01 15:26:00,
2013-05-01 11:31:00,79.0,73.4,30.00,SE,135,10.0,15.0,83,0.00,,,0.00,meteohub,2013-05-01 15:31:00,
2013-05-01 11:36:00,79.0,72.7,30.00,SE,135,9.0,15.0,81,0.00,,,0.00,meteohub,2013-05-01 15:36:00,
2013-05-01 11:41:00,79.0,72.7,30.00,SE,135,9.0,15.0,81,0.00,,,0.00,meteohub,2013-05-01 15:41:00,
2013-05-01 11:47:00,79.0,72.0,30.00,SE,135,9.0,15.0,79,0.00,,,0.00,meteohub,2013-05-01 15:47:00,
2013-05-01 11:52:00,79.0,73.4,30.01,SE,135,12.0,15.0,83,0.00,,,0.00,meteohub,2013-05-01 15:52:00,
2013-05-01 11:57:00,79.0,72.0,30.01,SE,135,15.0,15.0,79,0.00,,,0.00,meteohub,2013-05-01 15:57:00,
2013-05-01 12:02:00,79.0,72.0,30.01,SE,135,10.0,17.0,79,0.00,,,0.00,meteohub,2013-05-01 16:02:00,
2013-05-01 12:07:00,79.0,72.7,30.01,SE,135,12.0,17.0,81,0.00,,,0.00,meteohub,2013-05-01 16:07:00,
2013-05-01 12:12:00,79.0,72.7,30.01,SE,135,13.0,17.0,81,0.00,,,0.00,meteohub,2013-05-01 16:12:00,
2013-05-01 12:17:00,79.0,72.7,30.01,SE,135,9.0,17.0,81,0.00,,,0.00,meteohub,2013-05-01 16:17:00,
2013-05-01 12:22:00,78.1,71.8,30.01,SE,135,11.0,16.0,81,0.00,,,0.00,meteohub,2013-05-01 16:22:00,
2013-05-01 12:27:00,78.1,73.9,30.01,SE,135,12.0,16.0,87,0.00,,,0.00,meteohub,2013-05-01 16:27:00,
2013-05-01 12:32:00,78.1,72.1,30.01,SE,135,10.0,16.0,82,0.00,,,0.00,meteohub,2013-05-01 16:32:00,
2013-05-01 12:37:00,78.1,72.9,30.01,SE,135,6.0,16.0,84,0.00,,,0.00,meteohub,2013-05-01 16:37:00,
2013-05-01 12:42:00,78.1,73.2,30.01,South,180,7.0,15.0,85,0.00,,,0.00,meteohub,2013-05-01 16:42:00,
2013-05-01 12:47:00,78.1,72.9,30.01,South,180,7.0,13.0,84,0.00,,,0.00,meteohub,2013-05-01 16:47:00,
2013-05-01 12:52:00,78.1,73.6,30.03,SW,225,9.0,13.0,86,0.01,,,0.01,meteohub,2013-05-01 16:52:00,
2013-05-01 12:57:00,72.0,67.8,30.04,WSW,247,20.0,31.0,87,0.02,,,0.02,meteohub,2013-05-01 16:57:00,
2013-05-01 13:02:00,70.0,68.7,30.04,WSW,247,19.0,31.0,96,0.06,,,0.06,meteohub,2013-05-01 17:02:00,
2013-05-01 13:07:00,70.0,68.2,30.04,SW,225,21.0,31.0,94,0.18,,,0.17,meteohub,2013-05-01 17:07:00,
2013-05-01 13:12:00,69.1,67.3,30.04,SSW,202,10.0,28.0,94,0.27,,,0.27,meteohub,2013-05-01 17:12:00,
2013-05-01 13:17:00,69.1,67.6,30.03,South,180,7.0,28.0,95,0.48,,,0.48,meteohub,2013-05-01 17:17:00,
2013-05-01 13:22:00,69.1,67.6,30.03,South,180,7.0,26.0,95,0.57,,,0.56,meteohub,2013-05-01 17:22:00,
2013-05-01 13:27:00,69.1,67.6,30.03,SE,135,1.0,19.0,95,0.58,,,0.58,meteohub,2013-05-01 17:27:00,
2013-05-01 13:32:00,69.1,67.6,30.01,SE,135,8.0,12.0,95,0.61,,,0.61,meteohub,2013-05-01 17:32:00,
2013-05-01 13:37:00,69.1,69.1,29.99,SE,135,14.0,14.0,100,0.62,,,0.62,meteohub,2013-05-01 17:37:00,
2013-05-01 13:42:00,70.0,68.5,29.99,SE,135,11.0,15.0,95,0.63,,,0.63,meteohub,2013-05-01 17:42:00,
2013-05-01 13:47:00,71.1,69.3,29.96,SE,135,10.0,15.0,94,0.64,,,0.64,meteohub,2013-05-01 17:47:00,
2013-05-01 13:52:00,70.0,68.5,29.98,WSW,247,13.0,15.0,95,0.64,,,0.65,meteohub,2013-05-01 17:52:00,
2013-05-01 13:57:00,70.0,68.2,29.98,SW,225,10.0,14.0,94,0.63,,,0.66,meteohub,2013-05-01 17:57:00,
2013-05-01 14:02:00,70.0,68.2,29.99,WSW,247,13.0,14.0,94,0.58,,,0.67,meteohub,2013-05-01 18:02:00,
2013-05-01 14:07:00,71.1,69.3,29.98,SW,225,9.0,17.0,94,0.47,,,0.67,meteohub,2013-05-01 18:07:00,
2013-05-01 14:12:00,70.0,70.0,29.98,SW,225,12.0,17.0,100,0.29,,,0.67,meteohub,2013-05-01 18:12:00,
2013-05-01 14:17:00,71.1,68.9,29.98,SW,225,10.0,17.0,93,0.15,,,0.67,meteohub,2013-05-01 18:17:00,
2013-05-01 14:22:00,71.1,68.5,29.98,SSW,202,10.0,17.0,92,0.10,,,0.67,meteohub,2013-05-01 18:22:00,
2013-05-01 14:27:00,72.0,69.3,29.98,SW,225,10.0,17.0,91,0.08,,,0.67,meteohub,2013-05-01 18:27:00,
2013-05-01 14:32:00,72.0,68.2,29.98,SSW,202,7.0,15.0,88,0.06,,,0.67,meteohub,2013-05-01 18:32:00,
2013-05-01 14:37:00,73.0,68.5,29.98,South,180,13.0,15.0,86,0.04,,,0.67,meteohub,2013-05-01 18:37:00,
2013-05-01 14:42:00,73.0,67.6,29.96,South,180,10.0,15.0,83,0.02,,,0.67,meteohub,2013-05-01 18:42:00,
2013-05-01 14:47:00,73.0,69.6,29.99,SSW,202,7.0,15.0,89,0.02,,,0.67,meteohub,2013-05-01 18:47:00,
2013-05-01 14:52:00,73.0,67.3,29.99,South,180,6.0,15.0,82,0.01,,,0.67,meteohub,2013-05-01 18:52:00,
2013-05-01 14:57:00,73.0,67.3,29.98,South,180,6.0,15.0,82,0.01,,,0.67,meteohub,2013-05-01 18:57:00,
2013-05-01 15:02:00,73.0,67.3,29.96,SSE,157,7.0,13.0,82,0.00,,,0.67,meteohub,2013-05-01 19:02:00,
2013-05-01 15:07:00,73.9,67.5,29.96,SE,135,10.0,13.0,80,0.00,,,0.67,meteohub,2013-05-01 19:07:00,
2013-05-01 15:12:00,73.9,67.8,29.96,South,180,8.0,13.0,81,0.00,,,0.67,meteohub,2013-05-01 19:12:00,
2013-05-01 15:17:00,73.9,68.2,29.96,SE,135,6.0,13.0,82,0.00,,,0.67,meteohub,2013-05-01 19:17:00,
2013-05-01 15:22:00,73.0,69.6,29.96,SE,135,12.0,13.0,89,0.00,,,0.67,meteohub,2013-05-01 19:22:00,
2013-05-01 15:27:00,73.9,68.2,29.96,SE,135,11.0,13.0,82,0.00,,,0.67,meteohub,2013-05-01 19:27:00,
2013-05-01 15:32:00,73.9,68.2,29.96,SE,135,10.0,13.0,82,0.00,,,0.67,meteohub,2013-05-01 19:32:00,
2013-05-01 15:37:00,73.9,68.7,29.95,SE,135,10.0,15.0,84,0.00,,,0.67,meteohub,2013-05-01 19:37:00,
2013-05-01 15:42:00,73.9,68.4,29.95,NE,45,13.0,15.0,83,0.00,,,0.67,meteohub,2013-05-01 19:42:00,
2013-05-01 15:47:00,73.0,68.0,29.95,NE,45,7.0,15.0,84,0.00,,,0.67,meteohub,2013-05-01 19:47:00,
2013-05-01 15:52:00,73.0,68.0,29.95,NE,45,6.0,15.0,84,0.00,,,0.67,meteohub,2013-05-01 19:52:00,
2013-05-01 15:57:00,73.0,70.0,29.95,NE,45,9.0,13.0,90,0.00,,,0.67,meteohub,2013-05-01 19:57:00,
2013-05-01 16:02:00,73.0,68.0,29.95,NE,45,12.0,13.0,84,0.00,,,0.67,meteohub,2013-05-01 20:02:00,
2013-05-01 16:07:00,73.0,68.0,29.94,SE,135,6.0,13.0,84,0.00,,,0.67,meteohub,2013-05-01 20:07:00,
2013-05-01 16:12:00,73.0,68.5,29.94,NE,45,6.0,13.0,86,0.00,,,0.67,meteohub,2013-05-01 20:12:00,
2013-05-01 16:17:00,73.0,68.0,29.94,NE,45,6.0,13.0,84,0.00,,,0.67,meteohub,2013-05-01 20:17:00,
2013-05-01 16:22:00,73.0,68.0,29.94,NE,45,7.0,11.0,84,0.00,,,0.67,meteohub,2013-05-01 20:22:00,
2013-05-01 16:27:00,73.0,68.5,29.95,NE,45,8.0,12.0,86,0.00,,,0.67,meteohub,2013-05-01 20:27:00,
2013-05-01 16:32:00,73.0,70.3,29.96,NE,45,7.0,12.0,91,0.00,,,0.67,meteohub,2013-05-01 20:32:00,
2013-05-01 16:37:00,73.0,68.0,29.96,SE,135,7.0,12.0,84,0.00,,,0.67,meteohub,2013-05-01 20:37:00,
2013-05-01 16:42:00,73.0,68.0,29.95,SE,135,8.0,12.0,84,0.00,,,0.67,meteohub,2013-05-01 20:42:00,
2013-05-01 16:47:00,73.9,69.4,29.95,SE,135,9.0,11.0,86,0.00,,,0.67,meteohub,2013-05-01 20:47:00,
2013-05-01 16:52:00,73.9,68.7,29.95,SE,135,6.0,11.0,84,0.00,,,0.67,meteohub,2013-05-01 20:52:00,
2013-05-01 16:57:00,73.0,68.2,29.95,NE,45,7.0,11.0,85,0.00,,,0.67,meteohub,2013-05-01 20:57:00,
2013-05-01 17:02:00,73.0,68.5,29.95,NE,45,6.0,11.0,86,0.00,,,0.67,meteohub,2013-05-01 21:02:00,
2013-05-01 17:07:00,72.0,70.2,29.94,NE,45,5.0,10.0,94,0.01,,,0.68,meteohub,2013-05-01 21:07:00,
2013-05-01 17:12:00,73.0,68.9,29.94,NE,45,7.0,10.0,87,0.01,,,0.68,meteohub,2013-05-01 21:12:00,
2013-05-01 17:17:00,73.0,69.3,29.95,NE,45,7.0,12.0,88,0.02,,,0.69,meteohub,2013-05-01 21:17:00,
2013-05-01 17:22:00,73.0,69.6,29.95,SE,135,6.0,12.0,89,0.02,,,0.69,meteohub,2013-05-01 21:22:00,
2013-05-01 17:27:00,73.0,69.3,29.95,NE,45,7.0,11.0,88,0.02,,,0.69,meteohub,2013-05-01 21:27:00,
2013-05-01 17:32:00,73.0,69.3,29.94,NE,45,8.0,16.0,88,0.03,,,0.70,meteohub,2013-05-01 21:32:00,
2013-05-01 17:37:00,73.0,69.3,29.94,SE,135,9.0,16.0,88,0.03,,,0.70,meteohub,2013-05-01 21:37:00,
2013-05-01 17:42:00,73.0,71.8,29.94,SE,135,7.0,16.0,96,0.03,,,0.70,meteohub,2013-05-01 21:42:00,
2013-05-01 17:47:00,73.0,68.9,29.94,SE,135,12.0,15.0,87,0.03,,,0.70,meteohub,2013-05-01 21:47:00,
2013-05-01 17:52:00,73.0,68.9,29.94,SE,135,11.0,15.0,87,0.03,,,0.70,meteohub,2013-05-01 21:52:00,
2013-05-01 17:57:00,73.0,69.3,29.94,SE,135,15.0,19.0,88,0.03,,,0.70,meteohub,2013-05-01 21:57:00,
2013-05-01 18:02:00,73.0,68.5,29.94,SE,135,10.0,19.0,86,0.03,,,0.70,meteohub,2013-05-01 22:02:00,
2013-05-01 18:07:00,73.0,68.9,29.94,SE,135,10.0,19.0,87,0.02,,,0.70,meteohub,2013-05-01 22:07:00,
2013-05-01 18:12:00,73.0,68.9,29.94,SE,135,11.0,17.0,87,0.02,,,0.70,meteohub,2013-05-01 22:12:00,
2013-05-01 18:17:00,73.0,71.2,29.94,SE,135,12.0,17.0,94,0.02,,,0.70,meteohub,2013-05-01 22:17:00,
2013-05-01 18:22:00,73.0,68.9,29.94,SE,135,15.0,17.0,87,0.01,,,0.70,meteohub,2013-05-01 22:22:00,
2013-05-01 18:27:00,73.0,68.9,29.94,SE,135,10.0,16.0,87,0.01,,,0.70,meteohub,2013-05-01 22:27:00,
2013-05-01 18:32:00,73.0,69.3,29.94,SE,135,12.0,16.0,88,0.00,,,0.70,meteohub,2013-05-01 22:32:00,
2013-05-01 18:37:00,73.9,69.8,29.94,SE,135,12.0,16.0,87,0.00,,,0.70,meteohub,2013-05-01 22:37:00,
2013-05-01 18:42:00,73.9,69.8,29.93,SE,135,11.0,16.0,87,0.00,,,0.70,meteohub,2013-05-01 22:42:00,
2013-05-01 18:47:00,73.9,69.8,29.93,SE,135,10.0,16.0,87,0.00,,,0.70,meteohub,2013-05-01 22:47:00,
2013-05-01 18:52:00,73.9,72.1,29.94,SE,135,10.0,16.0,94,0.00,,,0.70,meteohub,2013-05-01 22:52:00,
2013-05-01 18:57:00,73.9,69.4,29.94,SE,135,12.0,16.0,86,0.00,,,0.70,meteohub,2013-05-01 22:57:00,
2013-05-01 19:02:00,73.9,69.4,29.93,SE,135,12.0,16.0,86,0.00,,,0.70,meteohub,2013-05-01 23:02:00,
2013-05-01 19:07:00,73.9,69.8,29.94,SE,135,14.0,16.0,87,0.00,,,0.70,meteohub,2013-05-01 23:07:00,
2013-05-01 19:12:00,73.0,71.2,29.93,SE,135,12.0,16.0,94,0.00,,,0.70,meteohub,2013-05-01 23:12:00,
2013-05-01 19:17:00,73.9,69.4,29.93,SE,135,13.0,16.0,86,0.00,,,0.70,meteohub,2013-05-01 23:17:00,
2013-05-01 19:23:00,73.9,69.4,29.94,SE,135,15.0,16.0,86,0.00,,,0.70,meteohub,2013-05-01 23:23:00,
2013-05-01 19:28:00,73.9,69.4,29.94,SE,135,11.0,16.0,86,0.00,,,0.70,meteohub,2013-05-01 23:28:00,
2013-05-01 19:33:00,73.9,71.4,29.94,SE,135,11.0,16.0,92,0.00,,,0.70,meteohub,2013-05-01 23:33:00,
2013-05-01 19:38:00,73.9,69.4,29.94,SE,135,9.0,15.0,86,0.00,,,0.70,meteohub,2013-05-01 23:38:00,
2013-05-01 19:43:00,73.9,69.4,29.94,SE,135,9.0,14.0,86,0.00,,,0.70,meteohub,2013-05-01 23:43:00,
2013-05-01 19:48:00,73.9,69.4,29.94,South,180,2.0,13.0,86,0.00,,,0.70,meteohub,2013-05-01 23:48:00,
2013-05-01 19:54:00,73.9,69.4,29.94,SE,135,8.0,13.0,86,0.00,,,0.70,meteohub,2013-05-01 23:54:00,
2013-05-01 19:59:00,73.9,69.4,29.95,NE,45,6.0,13.0,86,0.00,,,0.70,meteohub,2013-05-01 23:59:00,
2013-05-01 20:04:00,73.9,69.4,29.96,SE,135,7.0,9.0,86,0.00,,,0.70,meteohub,2013-05-02 00:04:00,
2013-05-01 20:09:00,73.9,69.8,29.96,SE,135,10.0,10.0,87,0.00,,,0.00,meteohub,2013-05-02 00:09:00,
2013-05-01 20:14:00,73.9,69.4,29.96,SE,135,5.0,13.0,86,0.00,,,0.00,meteohub,2013-05-02 00:14:00,
2013-05-01 20:19:00,73.9,69.4,29.96,SE,135,5.0,13.0,86,0.00,,,0.00,meteohub,2013-05-02 00:19:00,
2013-05-01 20:24:00,73.0,68.5,29.96,SE,135,6.0,13.0,86,0.00,,,0.00,meteohub,2013-05-02 00:24:00,
2013-05-01 20:30:00,73.0,70.5,29.96,SE,135,4.0,10.0,92,0.00,,,0.00,meteohub,2013-05-02 00:30:00,
2013-05-01 20:35:00,73.0,68.5,29.96,NE,45,1.0,10.0,86,0.00,,,0.00,meteohub,2013-05-02 00:35:00,
2013-05-01 20:40:00,73.0,68.5,29.96,North,0,0.0,9.0,86,0.00,,,0.00,meteohub,2013-05-02 00:40:00,
2013-05-01 20:45:00,73.0,68.9,29.96,SE,135,8.0,9.0,87,0.00,,,0.00,meteohub,2013-05-02 00:45:00,
2013-05-01 20:50:00,73.0,70.5,29.96,SE,135,6.0,7.0,92,0.00,,,0.00,meteohub,2013-05-02 00:50:00,
2013-05-01 20:55:00,73.0,68.2,29.96,NE,45,2.0,9.0,85,0.00,,,0.00,meteohub,2013-05-02 00:55:00,
2013-05-01 21:01:00,73.0,68.5,29.96,NE,45,5.0,9.0,86,0.00,,,0.00,meteohub,2013-05-02 01:01:00,
2013-05-01 21:06:00,72.0,68.2,29.96,NE,45,5.0,9.0,88,0.00,,,0.00,meteohub,2013-05-02 01:06:00,
2013-05-01 21:11:00,72.0,69.8,29.96,NE,45,4.0,7.0,93,0.00,,,0.00,meteohub,2013-05-02 01:11:00,
2013-05-01 21:16:00,72.0,68.2,29.96,NE,45,4.0,6.0,88,0.00,,,0.00,meteohub,2013-05-02 01:16:00,
2013-05-01 21:21:00,72.0,68.5,29.96,NE,45,3.0,7.0,89,0.00,,,0.00,meteohub,2013-05-02 01:21:00,
2013-05-01 21:26:00,72.0,68.9,29.96,SE,135,7.0,9.0,90,0.00,,,0.00,meteohub,2013-05-02 01:26:00,
2013-05-01 21:31:00,72.0,68.5,29.96,NE,45,7.0,10.0,89,0.00,,,0.00,meteohub,2013-05-02 01:31:00,
2013-05-01 21:36:00,72.0,68.5,29.96,NE,45,6.0,11.0,89,0.00,,,0.00,meteohub,2013-05-02 01:36:00,
2013-05-01 21:42:00,72.0,68.5,29.96,NE,45,9.0,11.0,89,0.00,,,0.00,meteohub,2013-05-02 01:42:00,
2013-05-01 21:47:00,72.0,69.8,29.96,NE,45,5.0,11.0,93,0.00,,,0.00,meteohub,2013-05-02 01:47:00,
2013-05-01 21:52:00,72.0,68.5,29.96,NE,45,7.0,11.0,89,0.00,,,0.00,meteohub,2013-05-02 01:52:00,
2013-05-01 21:57:00,72.0,68.5,29.96,NE,45,9.0,11.0,89,0.00,,,0.00,meteohub,2013-05-02 01:57:00,
2013-05-01 22:02:00,71.1,67.6,29.96,NE,45,7.0,12.0,89,0.00,,,0.00,meteohub,2013-05-02 02:02:00,
2013-05-01 22:07:00,71.1,67.3,29.96,NE,45,7.0,12.0,88,0.00,,,0.00,meteohub,2013-05-02 02:07:00,
2013-05-01 22:12:00,72.0,68.5,29.96,NE,45,10.0,11.0,89,0.00,,,0.00,meteohub,2013-05-02 02:12:00,
2013-05-01 22:17:00,71.1,68.0,29.96,NE,45,9.0,11.0,90,0.00,,,0.00,meteohub,2013-05-02 02:17:00,
2013-05-01 22:22:00,71.1,69.6,29.96,SE,135,6.0,12.0,95,0.00,,,0.00,meteohub,2013-05-02 02:22:00,
2013-05-01 22:27:00,71.1,68.4,29.96,NE,45,6.0,12.0,91,0.00,,,0.00,meteohub,2013-05-02 02:27:00,
2013-05-01 22:32:00,71.1,68.4,29.96,NE,45,6.0,12.0,91,0.00,,,0.00,meteohub,2013-05-02 02:32:00,
2013-05-01 22:37:00,71.1,68.5,29.96,SE,135,7.0,10.0,92,0.00,,,0.00,meteohub,2013-05-02 02:37:00,
2013-05-01 22:42:00,72.0,69.3,29.96,SE,135,7.0,11.0,91,0.00,,,0.00,meteohub,2013-05-02 02:42:00,
2013-05-01 22:47:00,71.1,68.4,29.96,NE,45,6.0,11.0,91,0.00,,,0.00,meteohub,2013-05-02 02:47:00,
2013-05-01 22:52:00,71.1,68.5,29.96,SE,135,6.0,11.0,92,0.00,,,0.00,meteohub,2013-05-02 02:52:00,
2013-05-01 22:57:00,71.1,70.2,29.96,NE,45,6.0,11.0,97,0.00,,,0.00,meteohub,2013-05-02 02:57:00,
2013-05-01 23:02:00,71.1,68.5,29.96,SE,135,9.0,11.0,92,0.00,,,0.00,meteohub,2013-05-02 03:02:00,
2013-05-01 23:07:00,71.1,68.5,29.96,NE,45,4.0,12.0,92,0.00,,,0.00,meteohub,2013-05-02 03:07:00,
2013-05-01 23:12:00,71.1,68.9,29.96,SE,135,4.0,12.0,93,0.00,,,0.00,meteohub,2013-05-02 03:12:00,
2013-05-01 23:17:00,71.1,68.5,29.96,NE,45,5.0,10.0,92,0.00,,,0.00,meteohub,2013-05-02 03:17:00,
2013-05-01 23:22:00,71.1,68.9,29.96,SE,135,2.0,9.0,93,0.00,,,0.00,meteohub,2013-05-02 03:22:00,
2013-05-01 23:27:00,71.1,68.9,29.96,SE,135,7.0,9.0,93,0.00,,,0.00,meteohub,2013-05-02 03:27:00,
2013-05-01 23:32:00,71.1,70.7,29.96,NE,45,5.0,8.0,99,0.00,,,0.00,meteohub,2013-05-02 03:32:00,
2013-05-01 23:37:00,71.1,69.3,29.96,NE,45,7.0,10.0,94,0.00,,,0.00,meteohub,2013-05-02 03:37:00,
2013-05-01 23:42:00,71.1,69.3,29.96,NE,45,6.0,10.0,94,0.00,,,0.00,meteohub,2013-05-02 03:42:00,
2013-05-01 23:47:00,71.1,69.6,29.96,SE,135,10.0,10.0,95,0.00,,,0.00,meteohub,2013-05-02 03:47:00,
2013-05-01 23:52:00,72.0,70.2,29.96,SE,135,10.0,10.0,94,0.00,,,0.00,meteohub,2013-05-02 03:52:00,
2013-05-01 23:57:00,72.0,69.8,29.96,SE,135,7.0,12.0,93,0.00,,,0.00,meteohub,2013-05-02 03:57:00,